SL-14 R/B, 21656

Orbit data source: Space-Track

SL-14 R/B, 21656 is space debris in LEO originally from a launch on Thu, 15 Aug 1991 UTC launched from the Plesetsk Missile And Space Complex (PKMTR). Debris objects in space refer to the collection of defunct objects orbiting the Earth. Examples of debris include non-operational satellites, rocket bodies, and fragments generated from explosions, collisions, or faulty payload assembly.

Loading next visibility...
Identifier
21656, 1991-056B
Orbit
LEO
Country
Flag of CISCIS
Related business
Manufacturer
Yuzhnoe
Mission
Spacecraft
Bus & Motor
S5M, Unknown motor
Mass
1,600 kg wet, 1,600 kg dry
Launch date (UTC)
1991-08-15 (35 years ago)
Launch vehicle
Unknown
Launch site
Plesetsk Missile And Space Complex (PKMTR)
Object type
Payload
Rocket body
Debris
Shape & HBR
Cyl, 1.4 m
Radar Cross Section
7.351 m², Large (>1 m²)

Expand to show TLE details & history
Last TLE update: 5 days ago

TLE from 5 days ago
0 SL-14 R/B
1 21656U 91056B   26155.08198171  .00000020  00000-0  18072-4 0  9999
2 21656  82.5455 137.1844 0025947 102.0432 331.4862 13.20282355673686
Epoch: 2026-06-04T01:58Z
TLE epoch observation values (Epoch: 2026-06-04T01:58:03.219Z)
Latitude
71.90213°
Longitude
-121.38611°
Altitude
1,178.798 km
Speed
7.279 km/s
True Right ascension
10h 42m 38s
True Declination
71° 48' 22"
Sunlit
Object was in daylight at epoch
Visualization orbit readout
Latitude
Unknown
Longitude
Unknown
Altitude
Unknown
Speed
Unknown
Apparent Right ascension
Unknown
Apparent Declination
Unknown
Sunlit
N/A
Visualization observer readout
Local Sidereal Time
19:22:35
Azimuth
Unknown
Elevation
Unknown
Doppler factor
Unknown
Orbital elements
Apogee altitude
1,200.495 km
Perigee altitude
1,161.269 km
Semi-major axis
7,559.019 km
Eccentricity
0.00259
Inclination
82.5455°
RAAN
137.1844°
Arg. of periapsis
102.0432°
True anomaly
331.34386°
Mean anomaly
331.4862°
Eccentric anomaly
331.41507°
Mean motion
3.30252 °/min
Orbital period
109.01 mins
BSTAR
0.000018072
Loading maneuver chart data...
Computing Atmospheric mass density...
Loading historical data...
Loading historical data...
Loading historical data...
Loading historical data...
Loading historical data...
Loading historical data...
Loading historical data...

Documentation

Showing up to 5 results
|